Simultaneous Nadir Overpasses (SNOs) Predictions

Prediction of SNOs between GOES-14 and NPP Satellite Orbit:

Table of predicted SNOs for the next 14.0 days since TLE Epoch: 4/11/2025
Index Date Time (GOES-14) GOES-14 Lat,Lon NPP Lat,Lon Distance(km) Time Diff (sec)
1 04/12/2025 08:33:44 0.42,-108.30 0.02,-106.62 192.39 80
2 04/13/2025 20:53:04 -0.38,-108.32 -1.17,-111.94 412.71 80
3 04/14/2025 20:37:01 -0.40,-108.32 -0.20,-107.41 104.12 80
4 04/16/2025 08:56:11 0.35,-108.32 1.35,-112.68 497.74 80
5 04/17/2025 08:40:09 0.38,-108.32 0.32,-108.16 19.11 80
6 04/19/2025 20:40:44 -0.36,-108.33 -0.53,-108.94 70.14 80
7 04/20/2025 20:24:42 -0.39,-108.33 0.52,-104.42 446.60 80
8 04/22/2025 08:43:52 0.34,-108.33 0.62,-109.70 155.62 80
9 04/23/2025 08:27:49 0.37,-108.33 -0.37,-105.17 361.17 80
10 04/24/2025 20:47:08 -0.32,-108.34 -0.81,-110.48 244.56 80
